Regional Weather Roundup
Issued by NWS

Home | Current Version | Previous Version | Text Only | Print | Product List | Glossary Off
Versions: 1 2 3 4 5 6 7 8 9 10 11 12 13 14 15 16 17 18 19 20 21 22 23 24 25 26 27 28 29 30 31 32 33 34 35 36 37 38 39 40 41 42 43 44 45 46 47 48 49 50

767
ASUS45 KBOU 280607
RWRCO

WEATHER ROUNDUP FOR COLORADO
NATIONAL WEATHER SERVICE DENVER/BOULDER CO
1200 AM MDT WED JUN 28 2017

NOTE: "FAIR" INDICATES FEW OR NO CLOUDS BELOW 12000 FEET WITH NO
SIGNIFICANT WEATHER AND/OR OBSTRUCTIONS TO VISIBILITY.

COZ001>005-013-030-031-280700-
...NORTHWEST COLORADO...

CITY           SKY/WX    TMP DP  RH WIND       PRES   REMARKS
CRAIG          FAIR      53  36  52 S5        30.03R
HAYDEN         FAIR      61  30  31 S5        30.05R
MEEKER         FAIR      57  35  43 CALM      30.05R
RABBIT EARS PA FAIR      50  32  50 W9        30.32F
STEAMBOAT SPGS FAIR      55  40  57 CALM      30.07R
WALDEN         FAIR      50  36  57 SE3       30.16F
$$

COZ006>008-011-280700-
...WEST CENTRAL VALLEYS...

CITY           SKY/WX    TMP DP  RH WIND       PRES   REMARKS
GRAND JUNCTION FAIR      76  31  19 E3        29.86R
MONTROSE       FAIR      70  19  14 SE7       29.95S
EAGLE          FAIR      64  30  27 E7        30.05S
RIFLE          FAIR      75  28  17 VRB3G23   29.92S
DELTA          FAIR      70  27  20 NE7       29.89R
NUCLA          FAIR      68  12  11 E14       30.00R
$$

COZ017>023-064>068-280700-
...SOUTHWEST COLORADO...

CITY           SKY/WX    TMP DP  RH WIND       PRES   REMARKS
DURANGO        FAIR      59  23  25 NW3       30.04S
CORTEZ         FAIR      57  25  29 E5        29.99R
PAGOSA SPRINGS FAIR      55  21  26 CALM      30.14R
TELLURIDE      FAIR      58  15  18 SE9       30.26F
WOLF CREEK PAS FAIR      52   9  17 W5G21     30.50F
$$

COZ009-010-012-014-032>034-037-058>063-280700-
...CENTRAL COLORADO...

CITY           SKY/WX    TMP DP  RH WIND       PRES   REMARKS
ASPEN          FAIR      54  28  36 S6        30.11S
BUENA VISTA    FAIR      57  21  24 NW3       30.12R
COPPER MTN     FAIR      52  19  28 NW15      30.44S
BERTHOUD PASS  FAIR      43  30  61 NW28G33   30.44F
COTTONWOOD PAS FAIR      63   9  12 W5        30.27S
GUNNISON       FAIR      55  30  38 N10G17    30.12R
KREMMLING      FAIR      63  39  42 CALM      30.10F
LEADVILLE      FAIR      49  20  31 NE10      30.26S
MONARCH PASS   FAIR      52  14  22 W18       30.54S
SALIDA         FAIR      65  21  18 SW16      30.15S
SUNLIGHT       FAIR      54  23  30 W9G17     30.37S
WILKERSON PASS FAIR      54  18  24 N7        30.41S
$$

COZ069>075-280700-
...SAN LUIS VALLEY/SANGRE DE CRISTO MOUNTAINS...

CITY           SKY/WX    TMP DP  RH WIND       PRES   REMARKS
ALAMOSA        FAIR      54  28  36 SW3       30.10R
DEL NORTE      FAIR      56  24  29 W9        30.14S
LA VETA PASS   FAIR      57  23  26 MISG      30.42S
SAGUACHE       FAIR      59  18  20 N13       30.13R
$$

COZ035-036-038>040-280700-
...NORTHERN COLORADO FRONT RANGE...

CITY           SKY/WX    TMP DP  RH WIND       PRES   REMARKS
DENVER INTL AP MOCLDY    63  39  41 E13       29.91F
DMNS CITY PARK   N/A     66  42  41 SE7G13    29.94R
AURORA         PTCLDY    60  39  45 SE10      29.95S
FRONT RANGE AP FAIR      64  37  36 E17       29.95S
ERIE MUNI ARPT FAIR      67  40  37 S8        29.92R
BOULDER MUN AP FAIR      68  41  37 E5        29.93R
CENTENNIAL     FAIR      67  37  33 SE13      29.97R
BROOMFIELD     FAIR      68  37  32 SE5       29.96R
FORT COLLINS   FAIR      68  42  38 SE7       29.90S
LONGMONT       FAIR      68  41  37 SW3       29.93R
$$

COZ041-046-047-076>085-087-088-280700-
...PIKES PEAK/PALMER DIVIDE AND SOUTHERN FOOTHILLS...

CITY           SKY/WX    TMP DP  RH WIND       PRES   REMARKS
COLO. SPRINGS  FAIR      72  33  24 N22G32    29.98R
A. F. ACADEMY  FAIR      68  34  27 N13       30.02R
SCHRIEVER AFB  FAIR      68  34  27 N17G26    29.98R
CHEYENNE MTN   FAIR      71  31  23 NW18G26   29.98R
ELLICOTT       FAIR     N/A N/A N/A NE23G40   29.94R
FALCON           N/A     65  32  29 N10G17    30.04R
FORT CARSON    FAIR      72  35  25 N14       29.95R
LIMON          FAIR      65  41  41 NE12      29.92R
MONUMENT HILL  FAIR      55  34  44 NW3       30.08R
CANON CITY     CLEAR     72  28  20 SW5       29.88S
WALSENBURG     FAIR      64  36  34 SW12      29.94S
TRINIDAD       FAIR      70  44  39 W16       29.91S
$$

COZ042>045-048>051-090-091-280700-
...NORTHEAST COLORADO...

CITY           SKY/WX    TMP DP  RH WIND       PRES   REMARKS
GREELEY ARPT   FAIR      68  43  40 SE6       29.90R
AKRON          FAIR      64  42  44 N7        29.87R
BURLINGTON     FAIR      70  55  59 N8        29.84R
WRAY           FAIR      66  50  55 N8        29.81S
YUMA           MOCLDY    61  46  59 N6        29.84R
STERLING       FAIR      61  50  67 N5        29.84R
HOLYOKE        NOT AVBL
FORT MORGAN    FAIR      62  43  49 N8        29.89R
$$

COZ086-089-092>099-280700-
...SOUTHEAST COLORADO...

CITY           SKY/WX    TMP DP  RH WIND       PRES   REMARKS
PUEBLO         FAIR      75  36  24 N13       29.82R
LA JUNTA       FAIR      81  50  33 SW23      29.74S
LAMAR          FAIR      83  49  30 SW26G38   29.67F
SPRINGFIELD      N/A     72  53  51 S23G29    29.83F
$$




USA.gov is the U.S. government's official web portal to all federal, state and local government web resources and services.